Location: Jaite
(41.2884°N, 81.5737°W)
Time: 11:38:31
(UTC+00:00)

Meteor 1-21 Rocket - Pass Details

Date: 15 November 2025
Orbit: 831 x 907 km, 81.2° (Epoch: 10 December)

Event Time Altitude Azimuth Distance (km) Brightness Sun altitude
Rises 10:53:21 0° 196° (SSW) 3,471 7.4 -15.4°
Reaches altitude 10° 10:55:50 10° 199° (SSW) 2,525 6.6 -14.9°
Maximum altitude 11:01:32 66° 281° (W) 942 4.2 -13.9°
Drops below altitude 10° 11:07:10 10° 4° (N) 2,490 6.6 -12.8°
Sets 11:09:36 0° 7° (N) 3,420 7.3 -12.4°
